星链-32916 (STARLINK-32916)

导读

STARLINK-32916是美国SpaceX公司星链(Starlink)星座中的一颗卫星,于2025年2月8日发射升空,被部署至近地轨道。星链项目旨在构建全球覆盖的太空互联网通信系统,提供低成本、高性能的卫星互联网服务。该卫星是星链星座大规模组网进程中的一环,截至2026年,SpaceX已累计发射超万颗星链卫星,持续推动全球卫星互联网的覆盖与运营。

基本信息
目录编号:
62922
目录名称:
STARLINK-32916
国际标识:
2025-027R
轨道中心:
EARTH
卫星名称:
星链-32916
卫星全名:
星链-32916 (STARLINK-32916)
卫星状态:
在轨 (已飞行491 天)
发射日期:
2025-02-08 UTC
国别 :
美国 (US)
星等 :
--
轨道信息
数据来源 国际轨道数据
星历时间: 2026-06-14T00:18:32+0800
15小时前
查看轨道信息
半长轴: 6861.204km
偏心率: 0.0004406
轨道倾角: 43.004°
近地点辐角 109.547°
升交点赤经 306.690°
平近点角 250.586°
近地点: 480.043km
远地点: 486.091km
周期: 94.267分钟
每日圈数: 15.275742
详细信息
固有亮度:
5
最大亮度:
2.5
卫星平台:
Starlink V1.0
覆盖范围:
全球
运营商:
太空探索技术公司
运营商所在国:
美国
制造商(研发单位):
太空探索技术公司
制造商所在国:
美国
使用方式:
暂无
卫星简介
Starlink 计划是 SpaceX 推出的全球卫星互联网项目,通过发射低轨道卫星,为全球尤其是偏远地区提供高速、低延迟的互联网服务。自 2019 年起,Starlink 已部署数千颗卫星,旨在缩小全球数字鸿沟,推动互联网普及。该项目还为军事、航空等行业提供通信支持,带来广泛经济效益。
2D轨道图
3D轨道图
轨道高度分析图
轨道倾角分析图
轨道综合分析图
查看轨道综合分析图